When you browse on this site, cookies collect data to enhance your experience and personalize the content and advertising you see.
Visit our Privacy Policy to learn more. By continuing to use the site, you agree to this use of cookies and data.

Previsão horária em Elbasan

Hoje, 5 Julho, Domingo

Tempo Temperatura Precipitação Vento Pressão Humidade
00:00 +23°C° 0 mm 2 m/s 733 mmHg 76%
01:00 +23°C° 0 mm 1 m/s 733 mmHg 72%
02:00 +22°C° 0 mm 1 m/s 733 mmHg 74%
03:00 +22°C° 0 mm 1 m/s 732 mmHg 75%
04:00 +21°C° 0 mm 2 m/s 732 mmHg 76%
05:00 +23°C° 0 mm 1 m/s 732 mmHg 72%
06:00 +25°C° 0 mm 1 m/s 732 mmHg 69%
07:00 +26°C° 0 mm 1 m/s 732 mmHg 65%
08:00 +28°C° 0 mm 2 m/s 733 mmHg 58%
09:00 +30°C° 0 mm 2 m/s 733 mmHg 51%
10:00 +31°C° 0 mm 2 m/s 733 mmHg 43%
11:00 +32°C° 0.1 mm 2 m/s 732 mmHg 41%
12:00 +34°C° 0.1 mm 2 m/s 732 mmHg 39%
13:00 +34°C° 0.1 mm 3 m/s 732 mmHg 36%
14:00 +34°C° 0.1 mm 3 m/s 732 mmHg 39%
15:00 +33°C° 0.1 mm 3 m/s 732 mmHg 42%
16:00 +31°C° 0.1 mm 3 m/s 731 mmHg 45%
17:00 +29°C° 0.2 mm 2 m/s 731 mmHg 53%
18:00 +28°C° 0.2 mm 2 m/s 731 mmHg 61%
19:00 +26°C° 0.2 mm 1 m/s 731 mmHg 68%
20:00 +25°C° 0.1 mm 1 m/s 731 mmHg 70%
21:00 +24°C° 0.1 mm 1 m/s 731 mmHg 71%
22:00 +24°C° 0.1 mm 1 m/s 731 mmHg 73%
23:00 +24°C° 0.1 mm 1 m/s 731 mmHg 72%

Amanhã, 6 Julho, Segunda-feira

Tempo Temperatura Precipitação Vento Pressão Humidade
00:00 +24°C° 0.1 mm 1 m/s 731 mmHg 72%
01:00 +23°C° 0.1 mm 1 m/s 731 mmHg 72%
02:00 +23°C° 0.1 mm 1 m/s 730 mmHg 73%
03:00 +23°C° 0.1 mm 1 m/s 730 mmHg 73%
04:00 +23°C° 0.1 mm 1 m/s 730 mmHg 74%
05:00 +23°C° 0.2 mm 1 m/s 730 mmHg 73%
06:00 +24°C° 0.2 mm 1 m/s 730 mmHg 73%
07:00 +25°C° 0.2 mm 2 m/s 730 mmHg 73%
08:00 +26°C° 0.2 mm 2 m/s 730 mmHg 65%
09:00 +28°C° 0.2 mm 1 m/s 730 mmHg 56%
10:00 +30°C° 0.2 mm 1 m/s 730 mmHg 48%
11:00 +30°C° 0.1 mm 1 m/s 729 mmHg 46%
12:00 +31°C° 0.1 mm 2 m/s 729 mmHg 44%
13:00 +31°C° 0.1 mm 2 m/s 729 mmHg 41%
14:00 +31°C° 0.1 mm 2 m/s 728 mmHg 44%
15:00 +31°C° 0.1 mm 2 m/s 728 mmHg 46%
16:00 +30°C° 0.1 mm 2 m/s 728 mmHg 49%
17:00 +29°C° 0 mm 2 m/s 728 mmHg 55%
18:00 +27°C° 0 mm 1 m/s 728 mmHg 61%
19:00 +26°C° 0 mm 1 m/s 728 mmHg 67%
20:00 +25°C° 0 mm 1 m/s 728 mmHg 68%
21:00 +24°C° 0 mm 1 m/s 728 mmHg 68%
22:00 +24°C° 0 mm 1 m/s 728 mmHg 69%
23:00 +23°C° 0 mm 1 m/s 728 mmHg 69%

Depois de amanhã, 7 Julho, Terça-feira

Tempo Temperatura Precipitação Vento Pressão Humidade
00:00 +23°C° 0 mm 1 m/s 728 mmHg 69%
01:00 +23°C° 0 mm 1 m/s 727 mmHg 69%
02:00 +23°C° 0 mm 1 m/s 727 mmHg 68%
03:00 +22°C° 0 mm 1 m/s 727 mmHg 68%
04:00 +22°C° 0 mm 1 m/s 727 mmHg 67%
05:00 +24°C° 0 mm 1 m/s 727 mmHg 64%
06:00 +25°C° 0 mm 1 m/s 727 mmHg 60%
07:00 +27°C° 0 mm 1 m/s 728 mmHg 57%
08:00 +29°C° 0 mm 1 m/s 728 mmHg 53%
09:00 +30°C° 0 mm 2 m/s 728 mmHg 49%
10:00 +32°C° 0 mm 2 m/s 728 mmHg 45%
11:00 +32°C° 0.1 mm 2 m/s 728 mmHg 44%
12:00 +34°C° 0.1 mm 3 m/s 728 mmHg 44%
13:00 +34°C° 0.1 mm 3 m/s 729 mmHg 43%
14:00 +33°C° 1.3 mm 3 m/s 729 mmHg 50%
15:00 +30°C° 1.3 mm 3 m/s 729 mmHg 58%
16:00 +29°C° 1.3 mm 4 m/s 729 mmHg 65%
17:00 +27°C° 1.4 mm 3 m/s 729 mmHg 70%
18:00 +25°C° 1.4 mm 3 m/s 729 mmHg 76%
19:00 +24°C° 1.4 mm 2 m/s 730 mmHg 81%
20:00 +23°C° 0.3 mm 2 m/s 730 mmHg 83%
21:00 +21°C° 0.3 mm 2 m/s 731 mmHg 84%
22:00 +20°C° 0.3 mm 2 m/s 731 mmHg 86%
23:00 +20°C° 0 mm 2 m/s 731 mmHg 86%

8 Julho, Quarta-feira

Tempo Temperatura Precipitação Vento Pressão Humidade
00:00 +19°C° 0 mm 2 m/s 731 mmHg 86%
01:00 +19°C° 0 mm 2 m/s 731 mmHg 86%
02:00 +18°C° 0 mm 2 m/s 731 mmHg 86%
03:00 +18°C° 0 mm 2 m/s 731 mmHg 85%
04:00 +17°C° 0 mm 2 m/s 731 mmHg 85%
05:00 +19°C° 0 mm 2 m/s 732 mmHg 80%
06:00 +20°C° 0 mm 3 m/s 732 mmHg 75%
07:00 +21°C° 0 mm 3 m/s 732 mmHg 70%
08:00 +23°C° 0 mm 2 m/s 732 mmHg 64%
09:00 +25°C° 0 mm 2 m/s 733 mmHg 58%
10:00 +27°C° 0 mm 2 m/s 733 mmHg 52%
11:00 +28°C° 0 mm 2 m/s 733 mmHg 51%
12:00 +28°C° 0 mm 2 m/s 733 mmHg 49%
13:00 +29°C° 0 mm 3 m/s 733 mmHg 48%
14:00 +29°C° 0 mm 3 m/s 733 mmHg 49%
15:00 +29°C° 0 mm 3 m/s 733 mmHg 49%
16:00 +28°C° 0 mm 3 m/s 733 mmHg 50%
17:00 +27°C° 0 mm 3 m/s 733 mmHg 55%
18:00 +25°C° 0 mm 2 m/s 733 mmHg 60%
19:00 +24°C° 0 mm 2 m/s 734 mmHg 66%
20:00 +21°C° 0 mm 2 m/s 734 mmHg 67%
21:00 +20°C° 0 mm 2 m/s 734 mmHg 68%
22:00 +19°C° 0 mm 2 m/s 734 mmHg 69%
23:00 +19°C° 0 mm 2 m/s 734 mmHg 70%

9 Julho, Quinta-feira

Tempo Temperatura Precipitação Vento Pressão Humidade
00:00 +18°C° 0 mm 2 m/s 735 mmHg 71%
01:00 +18°C° 0 mm 3 m/s 735 mmHg 72%
02:00 +18°C° 0 mm 3 m/s 735 mmHg 73%
03:00 +17°C° 0 mm 3 m/s 734 mmHg 74%
04:00 +17°C° 0 mm 3 m/s 734 mmHg 75%
05:00 +19°C° 0 mm 3 m/s 735 mmHg 71%
06:00 +20°C° 0 mm 3 m/s 735 mmHg 67%
07:00 +22°C° 0 mm 3 m/s 735 mmHg 62%
08:00 +25°C° 0 mm 2 m/s 736 mmHg 57%
09:00 +27°C° 0 mm 2 m/s 736 mmHg 51%
10:00 +28°C° 0 mm 2 m/s 736 mmHg 45%
11:00 +29°C° 0 mm 2 m/s 736 mmHg 43%
12:00 +30°C° 0 mm 2 m/s 736 mmHg 41%
13:00 +31°C° 0 mm 2 m/s 735 mmHg 39%
14:00 +31°C° 0 mm 2 m/s 735 mmHg 41%
15:00 +31°C° 0 mm 2 m/s 735 mmHg 42%
16:00 +31°C° 0 mm 3 m/s 735 mmHg 44%
17:00 +29°C° 0 mm 2 m/s 735 mmHg 51%
18:00 +27°C° 0 mm 2 m/s 735 mmHg 58%
19:00 +25°C° 0 mm 2 m/s 735 mmHg 66%
20:00 +24°C° 0 mm 2 m/s 735 mmHg 67%
21:00 +23°C° 0 mm 2 m/s 736 mmHg 69%
22:00 +21°C° 0 mm 2 m/s 736 mmHg 71%
23:00 +21°C° 0 mm 2 m/s 736 mmHg 71%

10 Julho, Sexta-feira

Tempo Temperatura Precipitação Vento Pressão Humidade
00:00 +21°C° 0 mm 2 m/s 736 mmHg 71%
01:00 +20°C° 0 mm 2 m/s 736 mmHg 71%
02:00 +20°C° 0 mm 2 m/s 736 mmHg 71%
03:00 +20°C° 0 mm 2 m/s 735 mmHg 71%
04:00 +19°C° 0 mm 2 m/s 735 mmHg 71%
05:00 +21°C° 0 mm 2 m/s 735 mmHg 67%
06:00 +24°C° 0 mm 2 m/s 736 mmHg 63%
07:00 +26°C° 0 mm 2 m/s 736 mmHg 59%
08:00 +27°C° 0 mm 2 m/s 736 mmHg 54%
09:00 +29°C° 0 mm 2 m/s 736 mmHg 48%
10:00 +31°C° 0 mm 1 m/s 736 mmHg 42%
11:00 +31°C° 0 mm 2 m/s 736 mmHg 41%
12:00 +32°C° 0 mm 2 m/s 736 mmHg 39%
13:00 +34°C° 0 mm 2 m/s 735 mmHg 37%
14:00 +32°C° 0 mm 2 m/s 735 mmHg 39%
15:00 +32°C° 0 mm 2 m/s 735 mmHg 40%
16:00 +32°C° 0 mm 2 m/s 735 mmHg 42%
17:00 +30°C° 0 mm 2 m/s 735 mmHg 49%
18:00 +28°C° 0 mm 1 m/s 735 mmHg 55%
19:00 +26°C° 0 mm 1 m/s 734 mmHg 62%
20:00 +25°C° 0 mm 1 m/s 735 mmHg 64%
21:00 +24°C° 0 mm 1 m/s 735 mmHg 66%
22:00 +23°C° 0 mm 1 m/s 735 mmHg 68%
23:00 +23°C° 0 mm 2 m/s 735 mmHg 69%
Mostrar mais